| time (UTC) | temp F | wind direction | speed MPH | gust MPH | rain 1hr in | rain 24hr in | rain mn in | humidity % | barometer mb |
| 20260509111938 | 68 | 250 | 8.0 | 8.0 | 0.00 | 0.00 | 0.00 | 50 | 1015.0 |
| 20260509110938 | 68 | 250 | 8.0 | 8.0 | 0.00 | 0.00 | 0.00 | 50 | 1015.0 |
| 20260509105938 | 68 | 250 | 8.0 | 8.0 | 0.00 | 0.00 | 0.00 | 50 | 1015.0 |
| 20260509104938 | 69 | 240 | 10.0 | 10.0 | 0.00 | 0.00 | 0.00 | 50 | 1015.0 |
| 20260509103938 | 69 | 240 | 10.0 | 10.0 | 0.00 | 0.00 | 0.00 | 50 | 1015.0 |
| 20260509102938 | 69 | 240 | 10.0 | 10.0 | 0.00 | 0.00 | 0.00 | 50 | 1015.0 |
| 20260509101938 | 68 | 170 | 6.0 | 6.0 | 0.00 | 0.00 | 0.00 | 50 | 1015.0 |
| 20260509100938 | 68 | 170 | 6.0 | 6.0 | 0.00 | 0.00 | 0.00 | 50 | 1015.0 |
| 20260509095938 | 68 | 170 | 6.0 | 6.0 | 0.00 | 0.00 | 0.00 | 50 | 1015.0 |
| 20260509094938 | 66 | 160 | 5.0 | 5.0 | 0.00 | 0.00 | 0.00 | 50 | 1015.0 |
| 20260509093938 | 66 | 160 | 5.0 | 5.0 | 0.00 | 0.00 | 0.00 | 50 | 1015.0 |
| 20260509092938 | 66 | 160 | 5.0 | 5.0 | 0.00 | 0.00 | 0.00 | 50 | 1015.0 |
| 20260509091938 | 66 | 0 | 0.0 | 0.0 | 0.00 | 0.00 | 0.00 | 50 | 1015.0 |
| 20260509090908 | 66 | 0 | 0.0 | 0.0 | 0.00 | 0.00 | 0.00 | 50 | 1015.0 |
| 20260509085908 | 66 | 0 | 0.0 | 0.0 | 0.00 | 0.00 | 0.00 | 50 | 1015.0 |
| 20260509084908 | 64 | 0 | 0.0 | 0.0 | 0.00 | 0.00 | 0.00 | 50 | 1015.0 |
| 20260509083908 | 64 | 0 | 0.0 | 0.0 | 0.00 | 0.00 | 0.00 | 50 | 1015.0 |
| 20260509082908 | 64 | 0 | 0.0 | 0.0 | 0.00 | 0.00 | 0.00 | 50 | 1015.0 |
| 20260509081908 | 62 | 0 | 0.0 | 0.0 | 0.00 | 0.00 | 0.00 | 50 | 1015.0 |
| 20260509080908 | 62 | 0 | 0.0 | 0.0 | 0.00 | 0.00 | 0.00 | 50 | 1015.0 |
| 20260509075908 | 62 | 0 | 0.0 | 0.0 | 0.00 | 0.00 | 0.00 | 50 | 1015.0 |
| 20260509074908 | 60 | 0 | 0.0 | 0.0 | 0.00 | 0.00 | 0.00 | 50 | 1015.0 |
| 20260509073908 | 60 | 0 | 0.0 | 0.0 | 0.00 | 0.00 | 0.00 | 50 | 1015.0 |
| 20260509072908 | 60 | 0 | 0.0 | 0.0 | 0.00 | 0.00 | 0.00 | 50 | 1015.0 |
| 20260509071908 | 60 | 0 | 0.0 | 0.0 | 0.00 | 0.00 | 0.00 | 50 | 1015.0 |
| 20260509070908 | 60 | 0 | 0.0 | 0.0 | 0.00 | 0.00 | 0.00 | 50 | 1015.0 |
| 20260509065908 | 60 | 0 | 0.0 | 0.0 | 0.00 | 0.00 | 0.00 | 50 | 1015.0 |
| 20260509064908 | 57 | 0 | 0.0 | 0.0 | 0.00 | 0.00 | 0.00 | 50 | 1015.0 |
| 20260509063908 | 57 | 0 | 0.0 | 0.0 | 0.00 | 0.00 | 0.00 | 50 | 1015.0 |
| 20260509062908 | 57 | 0 | 0.0 | 0.0 | 0.00 | 0.00 | 0.00 | 50 | 1015.0 |
| 20260509061908 | 55 | 240 | 4.0 | 4.0 | 0.00 | 0.00 | 0.00 | 50 | 1015.0 |
| 20260509060908 | 55 | 240 | 4.0 | 4.0 | 0.00 | 0.00 | 0.00 | 50 | 1015.0 |
| 20260509055908 | 55 | 240 | 4.0 | 4.0 | 0.00 | 0.00 | 0.00 | 50 | 1015.0 |
| 20260509054908 | 53 | 0 | 0.0 | 0.0 | 0.00 | 0.00 | 0.00 | 50 | 1015.0 |
| 20260509053838 | 53 | 0 | 0.0 | 0.0 | 0.00 | 0.00 | 0.00 | 50 | 1015.0 |
| 20260509052838 | 53 | 0 | 0.0 | 0.0 | 0.00 | 0.00 | 0.00 | 50 | 1015.0 |
| 20260509051838 | 53 | 0 | 0.0 | 0.0 | 0.00 | 0.00 | 0.00 | 50 | 1015.0 |
| 20260509050838 | 53 | 0 | 0.0 | 0.0 | 0.00 | 0.00 | 0.00 | 50 | 1015.0 |
| 20260509045838 | 53 | 0 | 0.0 | 0.0 | 0.00 | 0.00 | 0.00 | 50 | 1015.0 |
| 20260509044838 | 51 | 10 | 4.0 | 4.0 | 0.00 | 0.00 | 0.00 | 50 | 1015.0 |
| 20260509043838 | 51 | 10 | 4.0 | 4.0 | 0.00 | 0.00 | 0.00 | 50 | 1015.0 |
| 20260509042838 | 51 | 10 | 4.0 | 4.0 | 0.00 | 0.00 | 0.00 | 50 | 1015.0 |
| 20260509041838 | 51 | 0 | 0.0 | 0.0 | 0.00 | 0.00 | 0.00 | 50 | 1015.0 |
| 20260509040838 | 51 | 0 | 0.0 | 0.0 | 0.00 | 0.00 | 0.00 | 50 | 1015.0 |
| 20260509035838 | 51 | 0 | 0.0 | 0.0 | 0.00 | 0.00 | 0.00 | 50 | 1015.0 |
| 20260509034838 | 50 | 10 | 3.0 | 3.0 | 0.00 | 0.00 | 0.00 | 50 | 1015.0 |
| 20260509033838 | 50 | 10 | 3.0 | 3.0 | 0.00 | 0.00 | 0.00 | 50 | 1015.0 |
| 20260509032838 | 50 | 10 | 3.0 | 3.0 | 0.00 | 0.00 | 0.00 | 50 | 1015.0 |
| 20260509031838 | 50 | 80 | 3.0 | 3.0 | 0.00 | 0.00 | 0.00 | 50 | 1015.0 |
| 20260509030838 | 50 | 80 | 3.0 | 3.0 | 0.00 | 0.00 | 0.00 | 50 | 1015.0 |
| 20260509025838 | 50 | 80 | 3.0 | 3.0 | 0.00 | 0.00 | 0.00 | 50 | 1015.0 |
| 20260509024838 | 50 | 0 | 0.0 | 0.0 | 0.00 | 0.00 | 0.00 | 50 | 1015.0 |
| 20260509023838 | 50 | 0 | 0.0 | 0.0 | 0.00 | 0.00 | 0.00 | 50 | 1015.0 |
| 20260509022838 | 50 | 0 | 0.0 | 0.0 | 0.00 | 0.00 | 0.00 | 50 | 1015.0 |
| 20260509021838 | 50 | 320 | 1.0 | 1.0 | 0.00 | 0.00 | 0.00 | 50 | 1015.0 |
| 20260509020838 | 50 | 320 | 1.0 | 1.0 | 0.00 | 0.00 | 0.00 | 50 | 1015.0 |
| 20260509015839 | 50 | 320 | 1.0 | 1.0 | 0.00 | 0.00 | 0.00 | 50 | 1015.0 |
| 20260509014809 | 50 | 0 | 0.0 | 0.0 | 0.00 | 0.00 | 0.00 | 50 | 1015.0 |
| 20260509013809 | 50 | 0 | 0.0 | 0.0 | 0.00 | 0.00 | 0.00 | 50 | 1015.0 |
| 20260509012809 | 50 | 0 | 0.0 | 0.0 | 0.00 | 0.00 | 0.00 | 50 | 1015.0 |
| 20260509011809 | 48 | 0 | 0.0 | 0.0 | 0.00 | 0.00 | 0.00 | 50 | 1015.0 |
| 20260509010809 | 48 | 0 | 0.0 | 0.0 | 0.00 | 0.00 | 0.00 | 50 | 1015.0 |
| 20260509005809 | 48 | 0 | 0.0 | 0.0 | 0.00 | 0.00 | 0.00 | 50 | 1015.0 |
| 20260509004809 | 48 | 350 | 3.0 | 3.0 | 0.00 | 0.00 | 0.00 | 50 | 1015.0 |
| 20260509003809 | 48 | 350 | 3.0 | 3.0 | 0.00 | 0.00 | 0.00 | 50 | 1015.0 |
| 20260509002809 | 48 | 350 | 3.0 | 3.0 | 0.00 | 0.00 | 0.00 | 50 | 1015.0 |
| 20260509001809 | 50 | 0 | 0.0 | 0.0 | 0.00 | 0.00 | 0.00 | 50 | 1015.0 |
| 20260509000809 | 50 | 0 | 0.0 | 0.0 | 0.00 | 0.00 | 0.00 | 50 | 1015.0 |
| 20260508235809 | 50 | 0 | 0.0 | 0.0 | 0.00 | 0.00 | 0.00 | 50 | 1015.0 |
| 20260508234809 | 51 | 100 | 3.0 | 3.0 | 0.00 | 0.00 | 0.00 | 50 | 1015.0 |
| 20260508233809 | 51 | 100 | 3.0 | 3.0 | 0.00 | 0.00 | 0.00 | 50 | 1015.0 |
| 20260508232809 | 51 | 100 | 3.0 | 3.0 | 0.00 | 0.00 | 0.00 | 50 | 1015.0 |
| 20260508231809 | 51 | 0 | 0.0 | 0.0 | 0.00 | 0.00 | 0.00 | 50 | 1015.0 |
| 20260508230809 | 51 | 0 | 0.0 | 0.0 | 0.00 | 0.00 | 0.00 | 50 | 1015.0 |
| 20260508225809 | 51 | 0 | 0.0 | 0.0 | 0.00 | 0.00 | 0.00 | 50 | 1015.0 |
| 20260508224809 | 51 | 0 | 0.0 | 0.0 | 0.00 | 0.00 | 0.00 | 50 | 1015.0 |
| 20260508223809 | 51 | 0 | 0.0 | 0.0 | 0.00 | 0.00 | 0.00 | 50 | 1015.0 |
| 20260508222809 | 51 | 0 | 0.0 | 0.0 | 0.00 | 0.00 | 0.00 | 50 | 1015.0 |
| 20260508221809 | 51 | 0 | 0.0 | 0.0 | 0.00 | 0.00 | 0.00 | 50 | 1015.0 |
| 20260508220809 | 51 | 0 | 0.0 | 0.0 | 0.00 | 0.00 | 0.00 | 50 | 1015.0 |
| 20260508215809 | 51 | 0 | 0.0 | 0.0 | 0.00 | 0.00 | 0.00 | 50 | 1015.0 |
| 20260508214809 | 53 | 0 | 0.0 | 0.0 | 0.00 | 0.00 | 0.00 | 50 | 1015.0 |
| 20260508213739 | 53 | 0 | 0.0 | 0.0 | 0.00 | 0.00 | 0.00 | 50 | 1015.0 |
| 20260508212739 | 53 | 0 | 0.0 | 0.0 | 0.00 | 0.00 | 0.00 | 50 | 1015.0 |
| 20260508211739 | 55 | 0 | 0.0 | 0.0 | 0.00 | 0.00 | 0.00 | 50 | 1015.0 |
| 20260508210739 | 55 | 0 | 0.0 | 0.0 | 0.00 | 0.00 | 0.00 | 50 | 1015.0 |
| 20260508205739 | 55 | 0 | 0.0 | 0.0 | 0.00 | 0.00 | 0.00 | 50 | 1015.0 |
| 20260508204739 | 55 | 0 | 0.0 | 0.0 | 0.00 | 0.00 | 0.00 | 50 | 1015.0 |
| 20260508203739 | 55 | 0 | 0.0 | 0.0 | 0.00 | 0.00 | 0.00 | 50 | 1015.0 |
| 20260508202739 | 55 | 0 | 0.0 | 0.0 | 0.00 | 0.00 | 0.00 | 50 | 1015.0 |
| 20260508201739 | 59 | 130 | 4.0 | 4.0 | 0.00 | 0.00 | 0.00 | 50 | 1015.0 |
| 20260508200739 | 59 | 130 | 4.0 | 4.0 | 0.00 | 0.00 | 0.00 | 50 | 1015.0 |
| 20260508195739 | 59 | 130 | 4.0 | 4.0 | 0.00 | 0.00 | 0.00 | 50 | 1015.0 |
| 20260508194739 | 59 | 0 | 0.0 | 0.0 | 0.00 | 0.00 | 0.00 | 50 | 1015.0 |
| 20260508193739 | 59 | 0 | 0.0 | 0.0 | 0.00 | 0.00 | 0.00 | 50 | 1015.0 |
| 20260508192739 | 59 | 0 | 0.0 | 0.0 | 0.00 | 0.00 | 0.00 | 50 | 1015.0 |
| 20260508191739 | 59 | 350 | 3.0 | 3.0 | 0.00 | 0.00 | 0.00 | 50 | 1015.0 |
| 20260508190739 | 59 | 350 | 3.0 | 3.0 | 0.00 | 0.00 | 0.00 | 50 | 1015.0 |
| 20260508185739 | 59 | 350 | 3.0 | 3.0 | 0.00 | 0.00 | 0.00 | 50 | 1015.0 |
| 20260508184739 | 57 | 340 | 4.0 | 4.0 | 0.00 | 0.00 | 0.00 | 50 | 1015.0 |
| 20260508183739 | 57 | 340 | 4.0 | 4.0 | 0.00 | 0.00 | 0.00 | 50 | 1015.0 |
| 20260508182739 | 57 | 340 | 4.0 | 4.0 | 0.00 | 0.00 | 0.00 | 50 | 1015.0 |
| 20260508181739 | 60 | 180 | 4.0 | 4.0 | 0.00 | 0.00 | 0.00 | 50 | 1015.0 |
| 20260508180739 | 60 | 180 | 4.0 | 4.0 | 0.00 | 0.00 | 0.00 | 50 | 1015.0 |
| 20260508175739 | 60 | 180 | 4.0 | 4.0 | 0.00 | 0.00 | 0.00 | 50 | 1015.0 |
| 20260508174709 | 60 | 20 | 6.0 | 6.0 | 0.00 | 0.00 | 0.00 | 50 | 1015.0 |
| 20260508173709 | 60 | 20 | 6.0 | 6.0 | 0.00 | 0.00 | 0.00 | 50 | 1015.0 |
| 20260508172709 | 60 | 20 | 6.0 | 6.0 | 0.00 | 0.00 | 0.00 | 50 | 1015.0 |
| 20260508171709 | 64 | 0 | 0.0 | 0.0 | 0.00 | 0.00 | 0.00 | 50 | 1015.0 |
| 20260508170709 | 64 | 0 | 0.0 | 0.0 | 0.00 | 0.00 | 0.00 | 50 | 1015.0 |
| 20260508165709 | 64 | 0 | 0.0 | 0.0 | 0.00 | 0.00 | 0.00 | 50 | 1015.0 |
| 20260508164709 | 66 | 280 | 5.0 | 5.0 | 0.00 | 0.00 | 0.00 | 50 | 1015.0 |
| 20260508163709 | 66 | 280 | 5.0 | 5.0 | 0.00 | 0.00 | 0.00 | 50 | 1015.0 |
| 20260508162709 | 66 | 280 | 5.0 | 5.0 | 0.00 | 0.00 | 0.00 | 50 | 1015.0 |
| 20260508161709 | 68 | 270 | 6.0 | 6.0 | 0.00 | 0.00 | 0.00 | 50 | 1015.0 |
| 20260508160709 | 68 | 270 | 6.0 | 6.0 | 0.00 | 0.00 | 0.00 | 50 | 1015.0 |
| 20260508155709 | 68 | 270 | 6.0 | 6.0 | 0.00 | 0.00 | 0.00 | 50 | 1015.0 |
| 20260508154709 | 68 | 260 | 8.0 | 8.0 | 0.00 | 0.00 | 0.00 | 50 | 1015.0 |
| 20260508153709 | 68 | 260 | 8.0 | 8.0 | 0.00 | 0.00 | 0.00 | 50 | 1015.0 |
| 20260508152709 | 69 | 270 | 8.0 | 8.0 | 0.00 | 0.00 | 0.00 | 50 | 1015.0 |
| 20260508151709 | 69 | 250 | 9.0 | 9.0 | 0.00 | 0.00 | 0.00 | 50 | 1015.0 |
| 20260508150709 | 69 | 250 | 9.0 | 9.0 | 0.00 | 0.00 | 0.00 | 50 | 1015.0 |
| 20260508145709 | 69 | 250 | 9.0 | 9.0 | 0.00 | 0.00 | 0.00 | 50 | 1015.0 |
| 20260508144709 | 69 | 260 | 8.0 | 8.0 | 0.00 | 0.00 | 0.00 | 50 | 1015.0 |
| 20260508143709 | 69 | 260 | 8.0 | 8.0 | 0.00 | 0.00 | 0.00 | 50 | 1015.0 |
| 20260508142709 | 69 | 260 | 8.0 | 8.0 | 0.00 | 0.00 | 0.00 | 50 | 1015.0 |
| 20260508141709 | 69 | 260 | 8.0 | 8.0 | 0.00 | 0.00 | 0.00 | 50 | 1015.0 |
| 20260508140709 | 69 | 260 | 8.0 | 8.0 | 0.00 | 0.00 | 0.00 | 50 | 1015.0 |
| 20260508135709 | 69 | 260 | 8.0 | 8.0 | 0.00 | 0.00 | 0.00 | 50 | 1015.0 |
| 20260508134639 | 69 | 280 | 7.0 | 7.0 | 0.00 | 0.00 | 0.00 | 50 | 1015.0 |
| 20260508133639 | 69 | 280 | 7.0 | 7.0 | 0.00 | 0.00 | 0.00 | 50 | 1015.0 |
| 20260508132640 | 69 | 280 | 7.0 | 7.0 | 0.00 | 0.00 | 0.00 | 50 | 1015.0 |
| 20260508131639 | 71 | 360 | 3.0 | 3.0 | 0.00 | 0.00 | 0.00 | 50 | 1015.0 |
| 20260508130640 | 71 | 360 | 3.0 | 3.0 | 0.00 | 0.00 | 0.00 | 50 | 1015.0 |
| 20260508125640 | 71 | 360 | 3.0 | 3.0 | 0.00 | 0.00 | 0.00 | 50 | 1015.0 |
| 20260508124640 | 69 | 250 | 5.0 | 5.0 | 0.00 | 0.00 | 0.00 | 50 | 1015.0 |
| 20260508123640 | 69 | 250 | 5.0 | 5.0 | 0.00 | 0.00 | 0.00 | 50 | 1015.0 |
| 20260508122640 | 69 | 250 | 5.0 | 5.0 | 0.00 | 0.00 | 0.00 | 50 | 1015.0 |
| 20260508121640 | 69 | 260 | 8.0 | 8.0 | 0.00 | 0.00 | 0.00 | 50 | 1015.0 |
| 20260508120640 | 69 | 260 | 8.0 | 8.0 | 0.00 | 0.00 | 0.00 | 50 | 1015.0 |
| 20260508115640 | 69 | 260 | 8.0 | 8.0 | 0.00 | 0.00 | 0.00 | 50 | 1015.0 |
| 20260508114640 | 69 | 250 | 4.0 | 4.0 | 0.00 | 0.00 | 0.00 | 50 | 1015.0 |
| 20260508113640 | 69 | 250 | 4.0 | 4.0 | 0.00 | 0.00 | 0.00 | 50 | 1015.0 |